Weather in Popivka

Ukraine / Sumi District     51°14′00″N   33°06′55″E
temp.,
°C
wind,
m/s
gust,
m/s
humid.,
%
clouds,
%
prec.,
mm/h
press.,
hPa
HPBL,
m
20 june, sun
sun2000:00+19e411945 0.0 1021254
03:00+17ene410946 0.0 1020194
06:00+17e4119181 0.1 1020255
09:00+21e6107493 0.1 1019427
12:00+24e796389 0.0 1019765
15:00+25e6966100 0.0 1018918
18:00+23e61076100 0.0 1018639
21:00+21e51281100 0.0 1017392
21 june, mon
mon2100:00+18e4119378 0.0 1017232
03:00+17e4118892 0.0 1016240
06:00+17ene4108822 0.0 1016218
09:00+22e58734 0.0 1016427
12:00+26ese7106110 0.0 1015831
15:00+27ese6116297 0.0 10151202
18:00+26ese5107099 0.0 1014694
21:00+22ese410870 0.0 1015246
22 june, tue
tue2200:00+19e410945 0.0 1015202
03:00+18e389414 0.0 1015144
06:00+18e410875 0.0 1015195
09:00+24ese58685 0.0 1015337
12:00+27ese685684 0.0 1016823
15:00+29ese5105684 0.0 10151163
18:00+27ese596996 0.0 1016433
21:00+22e4118814 0.0 1016225
23 june, wed
wed2300:00+20e49930 0.0 1016168
03:00+20e37940 0.0 1016126
06:00+20e49905 0.0 1016177
09:00+25e597154 0.0 1016422
12:00+28e686347 0.0 1016754
15:00+30ese585774 0.0 10161197
18:00+28ese4868100 0.0 1017406
21:00+23ese478477 0.0 1017127
24 june, thu
thu2400:00+21ese359397 0.0 101887
03:00+20ese349210 0.0 101852
06:00+21e359165 0.0 1019102
09:00+26ese46715 0.0 1018360
12:00+29e4660100 0.0 1018694
15:00+29ene3664100 0.0 1018918
18:00+30ese3565100 0.0 1018265
21:00+25ese348012 0.0 101861